Weather reports worldwide

Advertisment
Bangkok, Thailand (48455): temperature & dewpoint: 15.09.2018 06:00:00 - 21.09.2018 06:00:00 (ICT)Bangkok, Thailand (48455): wind speed: 15.09.2018 06:00:00 - 21.09.2018 06:00:00 (ICT)Bangkok, Thailand (48455): wind direction: 15.09.2018 06:00:00 - 21.09.2018 06:00:00 (ICT)Bangkok, Thailand (48455): reduced air pressure: 15.09.2018 06:00:00 - 21.09.2018 06:00:00 (ICT)Bangkok, Thailand (48455): visibility: 15.09.2018 06:00:00 - 21.09.2018 06:00:00 (ICT)Bangkok, Thailand (48455): precipitation: 15.09.2018 06:00:00 - 21.09.2018 06:00:00 (ICT)
Date & Time tt [°C] td [°C] ff [km/h] ff [kn] dd ppp [hPa] vv [km] rr [mm]
21.09.2018 06:00:00 - - - - - - - -
21.09.2018 05:00:00 - - - - - - - -
21.09.2018 04:00:00 26,8 25,2 0 0 N 1009,3 10 -
21.09.2018 03:00:00 - - - - - - - -
21.09.2018 02:00:00 - - - - - - - -
21.09.2018 01:00:00 26,7 25,4 0 0 N 1009,1 10 -
21.09.2018 00:00:00 - - - - - - - -
20.09.2018 23:00:00 - - - - - - - -
20.09.2018 22:00:00 27,0 26,3 0 0 N 1010,6 10 -
20.09.2018 21:00:00 - - - - - - - -
20.09.2018 20:00:00 - - - - - - - -
20.09.2018 19:00:00 27,2 25,8 0 0 N 1008,3 10 -
20.09.2018 18:00:00 - - - - - - - -
20.09.2018 17:00:00 - - - - - - - -
20.09.2018 16:00:00 31,7 25,4 4 2 W 1006,3 10 -
20.09.2018 15:00:00 - - - - - - - -
20.09.2018 14:00:00 - - - - - - - -
20.09.2018 13:00:00 32,5 24,2 8 4 SSE 1008,0 10 -
20.09.2018 12:00:00 - - - - - - - -
20.09.2018 11:00:00 - - - - - - - -
20.09.2018 10:00:00 30,1 25,1 0 0 N 1010,7 10 -
20.09.2018 09:00:00 - - - - - - - -
20.09.2018 08:00:00 - - - - - - - -
20.09.2018 07:00:00 26,5 24,6 0 0 N 1009,8 10 -
20.09.2018 06:00:00 - - - - - - - -
20.09.2018 05:00:00 - - - - - - - -
20.09.2018 04:00:00 26,8 24,8 0 0 N 1007,9 10 -
20.09.2018 03:00:00 - - - - - - - -
20.09.2018 02:00:00 - - - - - - - -
20.09.2018 01:00:00 27,0 25,3 0 0 N 1009,2 10 1,0
20.09.2018 00:00:00 - - - - - - - -
19.09.2018 23:00:00 - - - - - - - -
19.09.2018 22:00:00 27,3 24,4 0 0 N 1010,1 10 -
19.09.2018 21:00:00 - - - - - - - -
19.09.2018 20:00:00 - - - - - - - -
19.09.2018 19:00:00 27,8 24,2 0 0 N 1008,0 10 -
19.09.2018 18:00:00 - - - - - - - -
19.09.2018 17:00:00 - - - - - - - -
19.09.2018 16:00:00 28,8 24,0 4 2 ESE 1006,8 10 -
19.09.2018 15:00:00 - - - - - - - -
19.09.2018 14:00:00 - - - - - - - -
19.09.2018 13:00:00 29,0 23,9 0 0 N 1008,5 10 -
19.09.2018 12:00:00 - - - - - - - -
19.09.2018 11:00:00 - - - - - - - -
19.09.2018 10:00:00 28,7 25,7 0 0 N 1010,7 10 -
19.09.2018 09:00:00 - - - - - - - -
19.09.2018 08:00:00 - - - - - - - -
19.09.2018 07:00:00 26,0 25,3 0 0 N 1009,6 10 -
19.09.2018 06:00:00 - - - - - - - -
19.09.2018 05:00:00 - - - - - - - -
19.09.2018 04:00:00 25,8 24,6 0 0 N 1008,1 10 -
19.09.2018 03:00:00 - - - - - - - -
19.09.2018 02:00:00 - - - - - - - -
19.09.2018 01:00:00 26,2 25,6 2 1 SSE 1009,0 10 6,0
19.09.2018 00:00:00 - - - - - - - -
18.09.2018 23:00:00 - - - - - - - -
18.09.2018 22:00:00 26,3 23,2 0 0 N 1010,2 10 6,0
18.09.2018 21:00:00 - - - - - - - -
18.09.2018 20:00:00 - - - - - - - -
18.09.2018 19:00:00 28,5 24,6 4 2 SSE 1007,9 10 -
18.09.2018 18:00:00 - - - - - - - -
18.09.2018 17:00:00 - - - - - - - -
18.09.2018 16:00:00 30,7 23,1 4 2 SSW 1004,7 10 -
18.09.2018 15:00:00 - - - - - - - -
18.09.2018 14:00:00 - - - - - - - -
18.09.2018 13:00:00 31,2 22,4 9 5 SSE 1006,6 10 -
18.09.2018 12:00:00 - - - - - - - -
18.09.2018 11:00:00 - - - - - - - -
18.09.2018 10:00:00 30,6 23,2 4 2 ESE 1008,2 10 -
18.09.2018 09:00:00 - - - - - - - -
18.09.2018 08:00:00 - - - - - - - -
18.09.2018 07:00:00 27,6 24,4 0 0 N 1005,9 10 -
18.09.2018 06:00:00 - - - - - - - -
18.09.2018 05:00:00 - - - - - - - -
18.09.2018 04:00:00 28,0 22,7 0 0 N 1004,5 10 -
18.09.2018 03:00:00 - - - - - - - -
18.09.2018 02:00:00 - - - - - - - -
18.09.2018 01:00:00 28,5 22,5 0 0 N 1006,7 10 -
18.09.2018 00:00:00 - - - - - - - -
17.09.2018 23:00:00 - - - - - - - -
17.09.2018 22:00:00 28,5 22,5 0 0 N 1007,1 10 -
17.09.2018 21:00:00 - - - - - - - -
17.09.2018 20:00:00 - - - - - - - -
17.09.2018 19:00:00 29,3 24,9 0 0 N 1004,1 10 -
17.09.2018 18:00:00 - - - - - - - -
17.09.2018 17:00:00 - - - - - - - -
17.09.2018 16:00:00 31,6 24,2 15 8 SSE 1002,8 10 -
17.09.2018 15:00:00 - - - - - - - -
17.09.2018 14:00:00 - - - - - - - -
17.09.2018 13:00:00 31,8 24,4 9 5 S 1003,8 10 -
17.09.2018 12:00:00 - - - - - - - -
17.09.2018 11:00:00 - - - - - - - -
17.09.2018 10:00:00 - - - - - - - -
17.09.2018 09:00:00 - - - - - - - -
17.09.2018 08:00:00 - - - - - - - -
17.09.2018 07:00:00 26,6 24,4 0 0 N 1004,3 10 -
17.09.2018 06:00:00 - - - - - - - -
17.09.2018 05:00:00 - - - - - - - -
17.09.2018 04:00:00 26,7 24,2 0 0 N 1002,7 10 -
17.09.2018 03:00:00 - - - - - - - -
17.09.2018 02:00:00 - - - - - - - -
17.09.2018 01:00:00 27,2 26,3 0 0 N 1003,9 10 -
17.09.2018 00:00:00 - - - - - - - -
16.09.2018 23:00:00 - - - - - - - -
16.09.2018 22:00:00 27,6 26,2 0 0 N 1004,7 10 -
16.09.2018 21:00:00 - - - - - - - -
16.09.2018 20:00:00 - - - - - - - -
16.09.2018 19:00:00 27,7 26,4 5 3 S 1002,8 10 -
16.09.2018 18:00:00 - - - - - - - -
16.09.2018 17:00:00 - - - - - - - -
16.09.2018 16:00:00 27,5 26,1 4 2 W 1001,4 6 39,0
16.09.2018 15:00:00 - - - - - - - -
16.09.2018 14:00:00 - - - - - - - -
16.09.2018 13:00:00 32,2 26,4 4 2 ESE 1002,6 10 -
16.09.2018 12:00:00 - - - - - - - -
16.09.2018 11:00:00 - - - - - - - -
16.09.2018 10:00:00 28,1 23,9 0 0 N 1005,3 10 -
16.09.2018 09:00:00 - - - - - - - -
16.09.2018 08:00:00 - - - - - - - -
16.09.2018 07:00:00 25,1 23,8 0 0 N 1004,9 10 -
16.09.2018 06:00:00 - - - - - - - -
16.09.2018 05:00:00 - - - - - - - -
16.09.2018 04:00:00 25,4 25,1 0 0 N 1003,7 10 -
16.09.2018 03:00:00 - - - - - - - -
16.09.2018 02:00:00 - - - - - - - -
16.09.2018 01:00:00 26,0 25,3 0 0 N 1005,1 10 -
16.09.2018 00:00:00 - - - - - - - -
15.09.2018 23:00:00 - - - - - - - -
15.09.2018 22:00:00 26,3 25,6 0 0 N 1006,4 8 -
15.09.2018 21:00:00 - - - - - - - -
15.09.2018 20:00:00 - - - - - - - -
15.09.2018 19:00:00 26,5 25,8 0 0 N 1005,1 10 11,0
15.09.2018 18:00:00 - - - - - - - -
15.09.2018 17:00:00 - - - - - - - -
15.09.2018 16:00:00 32,0 26,3 4 2 ESE 1002,8 10 -
15.09.2018 15:00:00 - - - - - - - -
15.09.2018 14:00:00 - - - - - - - -
15.09.2018 13:00:00 32,0 25,7 8 4 WSW 1005,2 10 -
15.09.2018 12:00:00 - - - - - - - -
15.09.2018 11:00:00 - - - - - - - -
15.09.2018 10:00:00 28,6 25,6 2 1 WNW 1008,1 10 -
15.09.2018 09:00:00 - - - - - - - -
15.09.2018 08:00:00 - - - - - - - -
15.09.2018 07:00:00 25,1 24,8 0 0 N 1006,5 8 -
15.09.2018 06:00:00 - - - - - - - -

tt = temperature
td = dewpoint
ff = wind speed
dd = wind direction
ppp = reduced air pressure
vv = visibility
rr = precipitation

Next stations